Total_Precipitation_Accumulation
0.18 0.26 0.32 0.34 0.29 0.23 0.20 0.23 0.36 0.37 0.43 0.55 0.70 0.73 0.90 0.97 0.91 0.86 0.81 0.81 0.88 1.00 1.01 1.04 1.12 1.13 1.22 1.26 1.46 1.49 1.55 1.64 1.72 1.67 1.67 1.62 1.59 1.57 1.62 1.68 1.65 1.85 2.07 2.16
0.18 0.20 0.24 0.27 0.28 0.22 0.16 0.15 0.18 0.31 0.54 0.58 0.63 0.68 0.82 0.83 0.82 0.85 0.93 0.97 1.01 1.08 1.19 1.09 1.05 1.00 0.95 1.02 1.21 1.38 1.51 1.45 1.46 1.52 1.44 1.40 1.42 1.43 1.48 1.56 1.68 1.87 1.93 1.99
0.28 0.24 0.29 0.34 0.29 0.24 0.17 0.15 0.17 0.35 0.63 0.63 0.66 0.73 0.85 0.92 0.93 0.83 0.83 0.91 1.05 1.15 1.19 1.02 0.99 0.97 0.99 1.01 1.11 1.23 1.34 1.42 1.50 1.54 1.49 1.43 1.48 1.59 1.59 1.73 1.79 1.78 1.72 1.75
0.40 0.48 0.61 0.41 0.29 0.27 0.30 0.27 0.26 0.33 0.43 0.51 0.66 0.71 0.73 0.80 0.94 0.96 0.98 1.07 1.13 1.12 1.13 1.09 1.05 1.07 1.07 1.04 1.11 1.24 1.27 1.37 1.50 1.54 1.50 1.51 1.51 1.54 1.65 1.83 1.89 1.82 1.65 1.65
0.54 0.63 0.54 0.46 0.39 0.38 0.45 0.50 0.42 0.51 0.49 0.55 0.61 0.70 0.87 0.76 0.81 0.84 0.99 1.05 1.10 1.12 1.14 1.19 1.18 1.26 1.25 1.16 1.19 1.32 1.44 1.51 1.48 1.53 1.60 1.66 1.68 1.71 1.79 1.83 1.85 1.92 1.82 1.73
0.69 0.82 0.83 0.69 0.58 0.52 0.55 0.90 0.69 0.67 0.69 0.78 0.84 0.99 1.17 0.95 0.86 0.93 1.01 0.98 1.02 1.01 1.09 1.20 1.23 1.38 1.47 1.47 1.44 1.48 1.59 1.70 1.72 1.83 1.93 1.90 1.99 2.12 2.14 2.14 2.09 2.15 2.03 1.94
0.89 1.01 1.01 0.79 0.68 0.64 1.10 1.33 0.87 0.78 0.84 0.85 0.90 1.02 1.06 1.06 1.06 1.04 0.87 0.84 0.90 1.01 1.02 1.13 1.32 1.53 1.69 1.68 1.61 1.68 1.81 1.96 2.11 2.22 2.41 2.55 2.64 2.55 2.45 2.46 2.47 2.29 2.14 2.11
1.25 1.43 1.36 0.86 0.81 1.16 1.42 1.10 1.11 1.00 0.94 0.95 0.89 0.96 1.04 1.05 1.02 0.90 0.89 0.88 0.95 1.08 1.09 1.14 1.33 1.52 1.70 1.75 1.78 1.95 2.10 2.29 2.41 2.60 2.69 2.80 3.18 3.23 3.21 3.13 2.85 2.57 2.49 2.34
1.41 1.52 1.25 1.07 1.22 1.32 1.31 1.29 1.35 1.38 1.20 1.09 1.02 1.03 1.06 1.00 0.93 0.86 0.87 0.89 0.96 1.12 1.24 1.28 1.39 1.63 1.90 1.95 2.01 2.15 2.30 2.51 2.67 2.74 2.89 3.03 3.20 3.20 3.21 3.15 2.88 2.68 2.64 2.52
1.55 1.65 1.43 1.36 1.37 1.40 1.39 1.33 1.33 1.42 1.54 1.51 1.27 1.12 1.13 1.08 0.99 0.98 1.04 1.02 1.07 1.19 1.35 1.52 1.64 1.83 2.08 2.14 2.28 2.36 2.42 2.55 2.66 2.76 2.89 3.06 3.21 3.15 3.10 3.03 2.97 2.90 2.83 2.73
1.97 1.95 1.77 1.62 1.65 1.75 1.63 1.50 1.52 1.54 1.58 1.64 1.35 1.14 1.09 1.16 1.14 1.14 1.24 1.29 1.29 1.36 1.49 1.71 1.86 2.01 2.10 2.15 2.36 2.55 2.54 2.58 2.67 2.70 2.73 2.86 2.94 3.05 3.00 2.94 2.96 2.96 2.91 2.90
2.22 2.03 2.09 1.93 1.63 1.71 1.82 1.68 1.67 1.63 1.55 1.42 1.33 1.26 1.29 1.31 1.30 1.30 1.41 1.45 1.44 1.45 1.56 1.75 1.92 2.12 2.22 2.35 2.50 2.65 2.70 2.61 2.64 2.69 2.70 2.72 2.70 2.61 2.61 2.56 2.52 2.42 2.48 2.53
1.80 1.70 1.84 1.84 1.75 1.76 1.94 1.82 1.57 1.51 1.50 1.50 1.45 1.34 1.36 1.37 1.31 1.35 1.43 1.45 1.48 1.55 1.60 1.71 1.84 2.07 2.29 2.52 2.74 2.92 2.90 2.85 2.81 2.89 2.94 2.90 2.88 2.80 2.73 2.63 2.46 2.20 2.06 2.05
1.74 1.77 1.87 1.95 2.03 1.95 1.97 1.86 1.61 1.46 1.42 1.49 1.53 1.40 1.35 1.38 1.38 1.45 1.55 1.49 1.44 1.53 1.65 1.71 1.77 1.97 2.21 2.43 2.69 2.89 2.90 2.95 2.94 2.91 2.96 2.96 2.92 2.89 2.81 2.67 2.56 2.35 2.09 1.95
1.87 1.95 2.07 2.08 2.12 2.08 2.01 1.91 1.93 1.72 1.53 1.55 1.61 1.56 1.49 1.47 1.49 1.45 1.47 1.41 1.35 1.39 1.51 1.71 1.84 1.91 2.07 2.17 2.28 2.47 2.59 2.69 2.75 2.72 2.68 2.74 2.82 2.80 2.71 2.62 2.50 2.33 2.06 1.97
1.91 2.00 2.02 2.05 2.10 2.09 2.04 2.05 2.00 1.78 1.62 1.68 1.71 1.57 1.53 1.54 1.50 1.41 1.37 1.43 1.48 1.52 1.58 1.75 1.85 1.96 2.16 2.31 2.41 2.46 2.53 2.63 2.60 2.51 2.39 2.35 2.39 2.44 2.40 2.43 2.42 2.33 2.18 2.04
2.07 2.14 2.11 2.11 2.03 2.02 2.09 2.13 2.06 1.87 1.70 1.66 1.69 1.63 1.48 1.38 1.36 1.35 1.32 1.35 1.39 1.47 1.60 1.76 1.84 1.86 2.08 2.37 2.54 2.49 2.43 2.41 2.43 2.34 2.19 2.11 2.16 2.24 2.34 2.39 2.33 2.20 2.07 1.99
2.05 2.03 1.99 2.03 2.03 1.99 2.01 2.04 2.12 1.97 1.74 1.64 1.56 1.56 1.56 1.50 1.34 1.24 1.24 1.29 1.34 1.35 1.39 1.53 1.65 1.72 1.84 2.08 2.35 2.40 2.36 2.29 2.17 2.12 2.10 2.04 2.02 2.08 2.15 2.14 2.01 1.91 1.79 1.67
1.90 1.86 1.83 1.80 1.90 1.98 2.02 1.97 2.01 1.96 1.77 1.71 1.71 1.69 1.65 1.63 1.47 1.35 1.30 1.33 1.46 1.55 1.45 1.48 1.66 1.63 1.72 1.90 2.12 2.18 2.23 2.26 2.17 2.01 1.99 2.06 1.96 1.92 1.87 1.79 1.71 1.63 1.51 1.48
1.88 1.82 1.83 1.93 2.02 2.15 2.21 2.05 1.88 1.87 1.88 1.81 1.80 1.80 1.75 1.72 1.66 1.60 1.56 1.51 1.63 1.72 1.70 1.67 1.56 1.55 1.67 1.92 2.07 2.03 2.07 2.13 2.12 2.02 1.97 1.94 1.87 1.81 1.67 1.62 1.59 1.55 1.50 1.49
2.02 1.98 2.02 2.06 2.02 2.10 2.18 2.04 1.81 1.78 1.77 1.77 1.79 1.79 1.75 1.78 1.77 1.82 1.86 1.82 1.72 1.71 1.62 1.65 1.56 1.55 1.57 1.80 1.92 1.89 1.89 1.91 1.96 1.95 1.95 1.92 1.86 1.78 1.66 1.64 1.61 1.55 1.46 1.40
2.20 2.07 2.02 2.02 1.92 1.89 2.01 2.01 1.75 1.60 1.60 1.67 1.71 1.67 1.70 1.72 1.81 1.91 1.84 1.83 1.82 1.82 1.58 1.53 1.55 1.58 1.56 1.62 1.65 1.79 1.86 1.82 1.79 1.75 1.75 1.71 1.71 1.72 1.64 1.56 1.50 1.38 1.28 1.24
2.20 2.07 1.90 1.88 1.89 1.86 1.82 1.77 1.66 1.60 1.62 1.68 1.78 1.86 1.89 1.80 1.80 2.02 2.03 1.73 1.66 1.65 1.53 1.50 1.48 1.41 1.34 1.36 1.53 1.67 1.78 1.78 1.75 1.67 1.62 1.58 1.50 1.48 1.45 1.40 1.32 1.25 1.22 1.20
1.98 1.99 1.88 1.78 1.82 1.81 1.82 1.78 1.73 1.66 1.65 1.70 1.78 1.94 2.07 2.06 1.95 1.88 1.89 1.83 1.63 1.47 1.34 1.31 1.23 1.16 1.14 1.15 1.38 1.56 1.66 1.63 1.60 1.52 1.45 1.42 1.29 1.24 1.26 1.25 1.19 1.16 1.15 1.10
1.84 1.80 1.76 1.78 1.79 1.84 1.83 1.79 1.75 1.62 1.64 1.72 1.69 1.80 2.01 2.11 2.12 1.96 1.72 1.57 1.49 1.36 1.23 1.19 1.20 1.17 1.10 1.12 1.31 1.52 1.60 1.57 1.55 1.49 1.40 1.32 1.20 1.14 1.16 1.17 1.14 1.11 1.06 1.02
1.84 1.75 1.77 1.82 1.76 1.78 1.77 1.75 1.77 1.72 1.76 1.84 1.81 1.81 1.86 1.77 1.73 1.71 1.66 1.57 1.45 1.39 1.25 1.23 1.21 1.15 1.11 1.22 1.34 1.46 1.53 1.48 1.45 1.44 1.32 1.23 1.10 1.07 1.12 1.13 1.09 1.07 1.01 0.95
1.78 1.76 1.78 1.86 1.90 1.86 1.81 1.79 1.78 1.81 1.91 2.05 2.20 2.12 2.00 1.90 1.82 1.67 1.53 1.47 1.37 1.28 1.28 1.26 1.16 1.07 1.10 1.24 1.36 1.42 1.42 1.38 1.28 1.25 1.24 1.16 1.08 1.06 1.09 1.04 0.97 0.91 0.86 0.83